Location: Ambras
(47.2500°N, 11.4167°E)
Time: 18:00:14
(UTC+00:00)

Daily predictions for brighter satellites

Satellite Brightness Start Highest point End
(mag) Time Altitude Azimuth Time Altitude Azimuth Time Altitude Azimuth
Cosmos 292 Rocket 3.9 19:43:47 10° S 19:48:32 61° ESE 19:53:18 10° NNE
IGS 5A 3.5 19:44:39 10° SSE 19:48:48 86° ENE 19:53:00 10° NNW
SL-16 R/B 2.2 19:45:02 10° SSW 19:50:37 64° ESE 19:56:15 10° NNE
Cosmos 2360 Rocket 3.0 19:46:13 10° SSE 19:51:04 30° ESE 19:55:56 10° NE
Cosmos 2322 Rocket 2.4 19:47:19 10° S 19:52:49 53° ESE 19:58:22 10° NE
Genesis I 3.2 19:49:37 10° SW 19:53:28 84° SE 19:57:26 10° NE
CARTOSAT-1 4.4 19:51:07 10° SE 19:55:03 36° ENE 19:59:00 10° N
Cosmos 1461 3.7 19:51:19 10° NNW 19:55:23 41° NE 19:59:16 10° ESE
Resurs 01 Rocket 1.8 19:51:24 10° S 19:55:48 77° WSW 20:00:14 10° NNW
USA 81 4.2 19:50:48 10° N 19:56:03 65° E 20:01:17 10° SSE
OBJECT-B 3.6 19:54:57 10° SW 19:56:56 15° W 19:58:55 10° NW
USA 245 4.3 19:53:35 10° SSE 19:58:18 59° ENE 20:03:59 10° N
Cosmos 1975 Rocket 3.5 19:59:06 10° SSE 20:03:11 42° E 20:07:21 10° NNE
Cosmos 1470 3.5 20:01:07 10° NNW 20:05:02 55° W 20:08:53 10° S
SPOT 5 3.8 20:02:37 10° SE 20:07:21 38° ENE 20:11:53 10° N
ATLAS CENTAUR R/B 3.1 20:03:41 10° NNW 20:07:21 27° NE 20:11:13 10° E
Meteor 1-21 4.4 20:01:46 10° SSW 20:07:26 81° WNW 20:13:06 10° N
Cosmos 1674 3.3 20:04:13 10° SSE 20:07:40 37° E 20:11:07 10° NNE
COSMOS 2428 4.5 20:06:51 10° SE 20:09:43 14° E 20:12:36 10° ENE
Cosmos 1980 Rocket 4.3 20:05:54 10° WSW 20:10:55 32° NW 20:15:56 10° NNE
Cosmos 2237 4.3 20:08:48 10° S 20:14:21 56° ESE 20:19:55 10° NE
Terra 2.9 20:10:35 10° SE 20:14:45 31° ENE 20:18:57 10° N
Cosmos 2278 Rocket 4.4 20:12:07 10° N 20:15:38 16° NE 20:19:08 10° ENE
Cosmos 1726 3.4 20:14:52 10° NNW 20:18:14 37° W 20:21:36 10° SSW
Lacrosse 5 2.8 20:15:33 10° WNW 20:20:15 39° SW 20:24:51 10° SSE
Cosmos 1315 Rocket 4.0 20:16:55 10° NNW 20:20:52 43° W 20:24:46 10° SSW
Cosmos 1844 Rocket 2.8 20:20:09 10° NNW 20:25:50 70° ENE 20:30:54 13° SE
Cosmos 1452 Rocket 3.6 20:20:56 10° SSW 20:26:14 88° WNW 20:31:33 10° NNE
SL-8 R/B 3.7 20:23:22 10° WNW 20:28:12 81° SSW 20:32:59 10° ESE
Cosmos 2100 Rocket 4.1 20:23:48 10° N 20:30:13 77° E 20:36:23 11° SSE
ARIANE 5 R/B 2.6 20:29:11 12° SSE 20:33:19 83° ENE 20:37:49 10° NNW
NOSS 3-2 (C) 4.2 20:28:42 10° WSW 20:34:20 58° NW 20:40:55 10° NE
Cosmos 1340 3.8 20:32:11 15° SE 20:34:32 28° E 20:37:48 10° NNE
Cosmos 1850 Rocket 4.2 20:30:04 10° NNW 20:35:22 72° WSW 20:40:12 12° SSE
Cosmos 1908 3.2 20:33:50 10° N 20:37:45 83° E 20:40:58 14° S
FALCON 9 DEB 3.0 20:34:45 10° SW 20:38:09 64° SSE 20:41:33 10° ENE
ATLAS 3B R/B 3.1 20:32:35 10° S 20:38:28 37° ESE 20:44:32 10° NE
Cosmos 2263 Rocket 4.1 20:34:19 10° NW 20:38:42 23° WSW 20:43:05 10° SSW
SPOT 1/Viking Rocket 4.1 20:34:21 10° S 20:39:23 57° W 20:44:28 10° NNW
FALCON 9 DEB 4.1 20:40:01 17° SSE 20:41:03 21° SE 20:43:27 10° E
Geosat 4.0 20:37:26 14° SSE 20:41:46 83° WSW 20:46:50 10° NNW
Cosmos 1544 Rocket 3.6 20:40:26 10° N 20:44:54 70° E 20:48:22 16° SSE
CZ-2C R/B 4.4 20:40:21 10° N 20:45:03 59° WNW 20:49:44 10° SSW
Spot 2 Rocket 3.7 20:40:29 11° S 20:45:19 71° WSW 20:50:25 10° NNW
Cosmos 2173 Rocket 4.1 20:41:48 10° N 20:48:13 86° W 20:54:11 12° S
Lacrosse 5 rocket 1.2 20:45:09 10° SSW 20:48:41 46° SE 20:52:09 10° ENE
ERS-1 Rocket 3.0 20:44:31 14° SSE 20:48:48 87° ENE 20:53:53 10° NNW
Cosmos 1455 Rocket 3.4 20:45:19 10° NNW 20:49:45 65° W 20:53:47 12° S
Cosmos 2333 4.5 20:44:29 10° S 20:50:00 50° ESE 20:55:31 10° NE
Cosmos 1331 Rocket 4.0 20:44:50 10° SSW 20:50:01 70° ESE 20:55:18 10° NNE
FALCON 9 DEB 4.0 20:50:01 22° SSE 20:50:26 23° SE 20:52:59 10° E
Cosmos 2016 Rocket 4.0 20:45:15 10° N 20:51:21 69° E 20:56:17 16° SSE
BREEZE-M DEB (TANK) 1.9 20:58:07 10° SW 21:00:33 49° SSE 21:05:16 10° ENE
USA 215 3.8 20:55:11 10° ENE 21:01:03 34° SE 21:06:53 10° SSW
Cosmos 2333 Rocket 2.5 20:55:52 11° S 21:01:16 50° ESE 21:06:47 10° NE
Cosmos 1725 Rocket 4.0 20:57:18 10° N 21:03:30 74° E 21:08:13 18° SSE
Cosmos 1953 3.4 21:03:03 10° NNW 21:06:54 41° W 21:10:22 12° SSW
Cosmos 1626 2.2 21:04:14 13° SSW 21:07:24 73° W 21:11:07 10° N
Cosmos 1302 Rocket 4.2 21:04:49 15° S 21:08:57 53° ESE 21:14:03 10° NNE
Meteor 2-10 Rocket 4.2 21:05:51 10° N 21:10:38 39° ENE 21:13:41 20° SE
SL-14 R/B 3.3 21:08:38 19° S 21:11:29 78° E 21:15:31 10° NNE
Cosmos 2219 Rocket 2.4 21:07:37 14° S 21:12:20 52° ESE 21:17:50 10° NE
Cosmos 1844 3.9 21:07:15 10° NNW 21:12:46 65° WSW 21:16:41 20° S
Cosmos 1867 4.3 21:11:34 10° NNW 21:16:55 49° NE 21:21:11 15° ESE
Cosmos 1536 Rocket 3.5 21:15:05 20° S 21:18:11 76° E 21:22:39 10° NNE
Cosmos 1802 Rocket 4.3 21:12:08 10° NNW 21:18:20 66° W 21:23:39 15° S
CENTAUR R/B 4.4 21:12:35 10° W 21:18:23 36° NNW 21:25:12 10° NE
CZ-4B DEB 4.4 21:19:02 28° S 21:20:31 66° W 21:23:42 10° NNW
DNEPR-1 R/B 3.4 21:20:01 10° NW 21:24:15 84° SW 21:26:37 27° SSE
Meteor 1-24 Rocket 3.8 21:21:07 22° SSE 21:24:31 58° E 21:29:54 10° NNE
Cosmos 1025 Rocket 3.9 21:22:50 10° SSW 21:27:05 48° WNW 21:31:20 10° N
Cosmos 389 Rocket 3.4 21:25:53 10° N 21:29:05 35° ENE 21:30:14 27° ESE
Cosmos 2237 Rocket 3.5 21:27:21 19° SE 21:29:05 22° ESE 21:33:20 10° NE
Cosmos 1461 4.4 21:30:48 10° WNW 21:34:15 25° WSW 21:36:05 18° SSW
Cosmos 2360 Rocket 3.2 21:29:24 10° SW 21:34:51 48° NW 21:40:19 10° NNE
Cosmos 2228 3.4 21:30:32 10° N 21:34:52 55° ENE 21:36:56 28° SE
SL-16 R/B 4.4 21:30:29 10° WSW 21:35:12 26° NW 21:39:57 10° N
USA 267 3.8 21:29:15 10° E 21:35:37 57° NNE 21:42:01 10° NW
Cosmos 2322 Rocket 4.1 21:32:08 10° WSW 21:37:09 31° NW 21:42:12 10° NNE
Cosmos 1486 Rocket 4.1 21:37:07 10° NNW 21:42:21 69° ENE 21:45:12 27° SE
Cosmos 1455 3.4 21:40:57 10° N 21:44:25 31° ENE 21:45:44 25° ESE
SPOT 5 4.4 21:41:32 13° SSW 21:45:27 31° W 21:49:50 10° NNW
ATLAS CENTAUR R/B 1.9 21:42:13 10° NW 21:46:27 52° WSW 21:48:22 30° S
Cosmos 968 Rocket 3.4 21:45:44 10° NNW 21:50:52 78° WSW 21:53:28 30° SSE
Terra 3.0 21:49:22 17° SSW 21:52:26 34° W 21:56:47 10° NNW
Cosmos 1300 3.7 21:49:08 10° NNW 21:52:43 39° W 21:54:30 24° SSW
COSMOS 2428 2.7 21:48:21 16° SSW 21:53:06 86° ESE 21:58:53 10° NNE
Cosmos 2322 4.0 21:49:20 10° SW 21:54:58 67° WNW 22:00:38 10° NNE
FALCON 9 DEB 2.7 21:54:51 40° SW 21:55:46 69° SSE 21:58:55 10° ENE
Cosmos 1992 Rocket 4.1 21:54:03 29° S 21:56:36 58° ESE 22:01:44 10° NNE
Uosat 12 SS-18 rocket 4.1 21:54:41 22° SSW 21:57:31 75° SE 22:02:34 10° NE
Cosmos 2278 Rocket 2.3 21:55:08 10° NNW 22:00:49 69° ENE 22:04:01 27° SE
ATLAS CENTAUR R/B 3.8 21:59:32 26° SE 22:01:24 31° ESE 22:10:28 10° NE
Cosmos 2058 Rocket 3.7 22:01:18 10° N 22:05:36 45° ENE 22:07:18 30° SE
Cosmos 1346 Rocket 2.9 22:11:16 33° SSW 22:12:57 70° WNW 22:16:59 10° N
Cosmos 1726 Rocket 3.5 22:08:43 10° N 22:13:12 87° E 22:14:53 38° S
Cosmos 2233 Rocket 4.5 22:07:32 10° NNW 22:13:29 53° W 22:17:18 22° SSW
GEOS 3 Rocket 3.7 22:11:17 30° SSE 22:14:01 74° SW 22:19:22 10° NW
FALCON 9 DEB 3.2 22:13:19 10° WSW 22:16:25 64° NNW 22:19:30 10° ENE
FALCON 9 DEB 3.0 22:18:01 18° WSW 22:20:11 74° NNW 22:23:19 10° ENE
NOSS 0 Rocket 3.9 22:16:43 26° SSW 22:20:25 72° ESE 22:26:39 10° NNE
SL-4 R/B 2.8 22:22:18 31° ESE 22:22:18 31° ESE 22:24:46 10° ENE
Cosmos 1513 Rocket 4.4 22:17:19 10° N 22:23:26 79° E 22:26:33 31° SSE
FALCON 9 DEB 3.4 22:22:47 10° WSW 22:25:52 59° NNW 22:28:57 10° ENE
Cosmos 1606 Rocket 4.0 22:23:12 10° NNW 22:27:34 52° W 22:29:16 33° SSW
Lacrosse 5 rocket 2.8 22:24:34 10° W 22:27:52 32° NNW 22:31:09 10° NE
ATLAS 3B R/B 3.3 22:22:29 10° WSW 22:28:55 56° NW 22:35:38 10° NE
Cosmos 1892 Rocket 3.5 22:29:33 39° SSW 22:31:10 86° W 22:35:38 10° N
SJ 16-02 3.3 22:28:03 10° N 22:31:33 23° ENE 22:34:22 13° ESE
ALOS 2 2.6 22:32:40 41° SSE 22:34:11 80° ENE 22:38:36 10° NNW
Cosmos 1980 3.6 22:36:00 30° SSW 22:38:57 81° ESE 22:44:41 10° NNE
Cosmos 1441 Rocket 3.3 22:38:21 49° SE 22:39:03 59° E 22:42:50 10° NNE
Meteor 2-1 Rocket 4.1 22:34:12 10° N 22:39:44 87° E 22:42:13 35° SSE
Cosmos 1943 Rocket 3.6 22:35:25 10° NNW 22:40:21 32° NE 22:45:01 11° ESE
Cosmos 1703 3.3 22:39:40 50° SSE 22:40:30 66° E 22:44:25 10° NNE
Spot 4 4.2 22:39:08 34° SSW 22:40:57 53° W 22:45:39 10° NNW
Cosmos 1503 Rocket 4.1 22:36:22 10° NNW 22:41:43 66° WSW 22:43:52 36° S
USA 215 3.3 22:37:55 10° NE 22:44:29 82° NNW 22:51:01 10° WSW
Cosmos 2333 Rocket 3.8 22:40:39 10° WSW 22:45:47 32° NW 22:50:54 10° NNE
SAR-Lupe-2 3.7 22:46:32 10° NNE 22:50:05 54° E 22:50:27 51° SE
Cosmos 1328 4.0 22:52:30 48° SE 22:53:12 56° E 22:57:02 10° NNE
Cosmos 2219 Rocket 3.9 22:51:35 10° WSW 22:56:33 31° NW 23:01:35 10° NNE
Cosmos 1464 Rocket 4.2 22:52:35 10° NNW 22:58:53 64° W 23:02:03 31° SSW
Cosmos 1867 4.5 22:55:28 10° NW 23:00:21 34° WSW 23:01:49 29° SW
Cosmos 1626 Rocket 3.6 22:59:58 44° SSE 23:01:15 69° E 23:05:40 10° NNE
Cosmos 1607 4.1 22:55:58 10° NW 23:02:17 62° WSW 23:05:04 33° S
Thor Agena Rocket 3.8 22:57:33 10° NNE 23:02:45 56° E 23:04:38 36° SSE
Cosmos 2346 Rocket 4.5 23:00:49 31° SSW 23:03:57 77° W 23:10:09 10° N
Cosmos 1602 Rocket 3.8 23:06:53 41° SSE 23:08:09 58° E 23:12:34 10° NNE
SL-16 R/B 2.6 23:06:18 34° SSE 23:08:16 48° ESE 23:13:42 10° NE
PSLV R/B 4.3 23:04:42 10° NNE 23:08:48 41° E 23:09:53 34° SE
Cosmos 1634 Rocket 4.4 23:02:37 10° N 23:08:51 55° ENE 23:12:24 26° SE
Cosmos 2237 Rocket 2.5 23:09:08 23° SW 23:12:39 63° WNW 23:18:15 10° NNE
MTI 3.8 23:11:05 10° N 23:14:06 62° WNW 23:14:12 61° W
Cosmos 1758 Rocket 4.3 23:14:18 33° SE 23:15:34 42° E 23:19:45 10° NNE
Meteor 1-4 Rocket 2.3 23:12:56 10° NNW 23:16:26 75° W 23:16:45 68° SSW
USA 267 3.3 23:14:47 26° SSE 23:18:37 62° SW 23:25:07 10° WNW
Cosmos 1455 4.0 23:16:56 10° NW 23:19:48 20° W 23:20:36 19° WSW
Cosmos 1816 Rocket 4.4 23:17:16 32° SSW 23:20:16 80° W 23:26:26 10° N
Cosmos 2369 Rocket 3.5 23:17:36 10° NNW 23:22:54 37° NE 23:28:10 10° ESE
Cosmos 1777 Rocket 4.2 23:26:21 10° NNW 23:31:33 59° WSW 23:33:25 37° SSW
Cosmos-2242 3.3 23:27:25 10° N 23:31:48 61° ENE 23:33:23 36° SE
NOSS 2-3 (C) 4.2 23:31:45 34° SE 23:32:17 36° ESE 23:36:34 10° NE
Cosmos 2034 Rocket 4.4 23:26:58 10° NNW 23:32:54 50° W 23:35:44 29° SSW
Cosmos 1408 3.8 23:37:17 28° ESE 23:38:01 31° E 23:41:19 10° NNE
Cosmos 2297 3.6 23:38:12 10° NNW 23:43:50 76° WSW 23:46:30 32° SSE
Cosmos 1812 Rocket 3.7 23:39:48 10° NNW 23:44:06 60° W 23:45:17 43° SSW
Cosmos 2278 Rocket 3.7 23:40:17 10° NW 23:44:20 20° W 23:45:51 18° WSW
Meteor 1-11 4.2 23:44:20 34° SSW 23:46:53 77° W 23:52:30 10° N
Meteor 1-27 4.2 23:42:06 10° N 23:47:42 85° ENE 23:50:25 32° SSE
Cosmos 724 4.4 23:41:53 10° NW 23:48:00 65° WSW 23:50:58 31° SSE
